User: anonymous   Login
Location: Unspecified
(0.0000°N, 0.0000°E)
Time: 21:16:13
(UTC+00:00)
Language:

Nadezhda 5 - Orbit

View from above orbital plane
View from above orbital plane
View from above satellite
View from above satellite

Ground track
Ground track

The orbit data is extracted from the following two-line orbital elements,

1 25567U 98072A   17141.76640164 -.00000004 +00000-0 -21051-4 0  9998
2 25567 082.9478 007.8674 0024767 304.8617 124.1680 13.71822900923360
Epoch (UTC): 21 May 2017 18:23:37
Eccentricity: 0.0024767
inclination: 82.9478°
perigee height: 975 km
apogee height: 1011 km
right ascension of ascending node: 7.8674°
argument of perigee: 304.8617°
revolutions per day: 13.71822900
mean anomaly at epoch: 124.1680°
orbit number at epoch: 92336

The dashed part of the orbit path shows where the satellite is in the earth's shadow,  

DLR